Regional Weather Roundup
Issued by NWS

Home | Current Version | Previous Version | Text Only | Print | Product List | Glossary On
Versions: 1 2 3 4 5 6 7 8 9 10 11 12 13 14 15 16 17 18 19 20 21 22 23 24 25 26 27 28 29 30 31 32 33 34 35 36 37 38 39 40 41 42 43 44 45 46 47 48 49 50
000
ASUS46 KLOX 270713
RWRCA

SOUTHERN CALIFORNIA WEATHER ROUNDUP
NATIONAL WEATHER SERVICE OXNARD CALIFORNIA
1200 AM PDT FRI MAY 27 2016

NOTE: "FAIR" INDICATES FEW OR NO CLOUDS BELOW 12,000 FEET WITH NO
SIGNIFICANT WEATHER AND/OR OBSTRUCTIONS TO VISIBILITY.

  -  STATIONS PRECEEDED BY AN ASTERISK (*) ARE NOT NWS OR FAA
     STATIONS AND ARE NOT SUBJECT TO NWS AND FAA QUALITY CONTROL.

CAZ041-042-087-270800-
LA AND ORANGE COUNTY COASTAL AREAS


CITY           SKY/WX    TMP DP  RH WIND       PRES   REMARKS
L.A. DOWNTOWN  CLEAR     60  54  80 CALM      29.97F
L.A. AIRPORT   MOCLDY    60  55  83 VRB3      29.98S
LONG BEACH     CLEAR     62  55  77 S3        29.98S

CITY           SKY/WX    TMP DP  RH WIND       PRES   REMARKS
AVALON           N/A     59 N/A N/A MISG        N/A
FULLERTON      CLEAR     62  55  77 S3        29.97S
*GETTY CENTER    N/A     52  52 100 SW7         N/A
HAWTHORNE      CLEAR     60  55  83 SW6       29.98S
*LOS ALAMITOS  FAIR      59  56  88 S3        29.98S
*REDONDO BEACH   N/A     59  54  83 CALM      29.97F
SANTA ANA      PTCLDY    61  55  81 CALM      29.98S
STA MONICA APT PTCLDY    59  53  80 CALM      29.98F
*STA MON PIER    N/A     60  55  86 N1        29.91S
*UCLA            N/A     55  50  82 CALM      29.95S

$$

CAZ547-548-048-270800-
LA COUNTY VALLEYS AND INLAND EMPIRE


CITY           SKY/WX    TMP DP  RH WIND       PRES   REMARKS
BURBANK        CLEAR     58  50  75 S3        29.97F
VAN NUYS       CLEAR     59  50  72 E6        29.97F

CITY           SKY/WX    TMP DP  RH WIND       PRES   REMARKS
CORONA AIRPORT SUNNY     58  53  84 CALM      29.99R
*CHATSWORTH      N/A     60  51  72 E2        29.98S
CHINO          CLEAR     59  52  77 W6        30.00R
MARCH AFB      CLEAR     59  51  76 S2        29.98S
*NORTHRIDGE      N/A     59  48  67 NE2         N/A
ONTARIO        CLEAR     59  51  75 W5        29.98S
*PASADENA        N/A     59  52  77 E1          N/A
RIVERSIDE      CLEAR     61  52  72 W3        29.98S
SAN BERNARDINO NOT AVBL
*WHITEMAN AP   NOT AVBL
*WHITTIER HILL   N/A     55  49  80 CALM        N/A
*WOODLAND HILL   N/A     57  50  77 E1          N/A

$$

CAZ054-055-270800-
LA AND SAN BERNARDINO COUNTY MOUNTAINS


CITY           SKY/WX    TMP DP  RH WIND       PRES   REMARKS
*BIG BEAR AIRP SUNNY     37  32  81 CALM      30.13S
*CHILAO          N/A     50  41  72 CALM        N/A
SANDBERG       CLEAR     58  40  51 N16G25    30.06F

$$

CAZ028-029-059-060-099-270800-
ANTELOPE VALLEY AND SURROUNDING AREAS


CITY           SKY/WX    TMP DP  RH WIND       PRES   REMARKS
LANCASTER      CLEAR     64  42  44 W10       29.96F
PALMDALE       CLEAR     61  42  49 SW10      29.97F

CITY           SKY/WX    TMP DP  RH WIND       PRES   REMARKS
29 PALMS       CLEAR     70  42  36 NW13      29.96S
BARSTOW/DAGGET CLEAR     70  43  37 SW18      29.92S
BISHOP         MOCLDY    55  31  39 E5        30.01R
CHINA LAKE     CLEAR     64  40  41 S6        29.89S
EDWARDS AFB    CLEAR     62  41  45 SW12      29.93S
MOJAVE         CLEAR     64  43  45 W25       29.95F
NEEDLES        CLEAR     82  29  14 SW14      29.80S
VICTORVILLE    CLEAR     59  43  55 CALM      29.98F

$$

CAZ039-040-270800-
VENTURA AND SANTA BARBARA COUNTY COAST


CITY           SKY/WX    TMP DP  RH WIND       PRES   REMARKS
CAMARILLO      PTCLDY    57  51  80 SE3       29.96F
OXNARD AIRPORT CLEAR     58  54  86 SW5       29.96F
*POINT MUGU    CLEAR     56  52  86 W5        29.97F
SBA APT/GOLETA CLEAR     59  55  87 E6        29.94F
*SANTA BARBARA   N/A     60  53  76 CALM      30.03S
*VENTURA         N/A     56  52  87 E1        29.95S

$$

CAZ044-045-270800-
VENTURA COUNTY VALLEYS


CITY           SKY/WX    TMP DP  RH WIND       PRES   REMARKS
*SIMI VALLEY     N/A     56  50  81 CALM      29.92S
*WESTLAKE VILL   N/A     51  47  84 CALM      29.95S
*OJAI            N/A     47  44  91 CALM      29.92R
*FILLMORE        N/A     55  47  74 CALM      29.86S

$$

CAZ053-270800-
VENTURA COUNTY MOUNTAINS


CITY           SKY/WX    TMP DP  RH WIND       PRES   REMARKS
*ROSE VALLEY     N/A     46  37  71 MISG        N/A

$$

CAZ034-035-036-270800-
CENTRAL COAST AND SANTA YNEZ VALLEY


CITY           SKY/WX    TMP DP  RH WIND       PRES   REMARKS
SAN LUIS OBISP CLOUDY    56  51  84 NW6       30.02F
SANTA MARIA    CLOUDY    51  51 100 W6        30.03F FOG

CITY           SKY/WX    TMP DP  RH WIND       PRES   REMARKS
*CAL POLY SLO    N/A     54  52  94 CALM        N/A
*LOMPOC        CLOUDY    54  51  90 NW5       30.03F
*PISMO BEACH     N/A     55  51  87 CALM      30.02F
*SANTA YNEZ    CLOUDY    52  48  87 W3        30.01F

$$

CAZ037-038-051-270800-
SAN LUIS OBISPO COUNTY INTERIOR AND CUYAMA VALLEY


CITY           SKY/WX    TMP DP  RH WIND       PRES   REMARKS
*CUYAMA          N/A     56  46  67 W2        29.95S
PASO ROBLES    CLEAR     55  48  77 NW9       30.00F

$$

CAZ032-033-061-270800-
SOUTHERN DESERTS


CITY           SKY/WX    TMP DP  RH WIND       PRES   REMARKS
BLYTHE         CLEAR     78  39  24 SW7       29.81S
IMPERIAL       CLEAR     73  49  42 W9        29.82S
PALM SPRINGS     N/A    N/A N/A N/A MISG      29.84S
THERMAL        CLEAR     75  49  39 NW14      29.80R

$$

ELSEWHERE ACROSS THE WESTERN UNITED STATES AND MEXICO


CITY           SKY/WX    TMP DP  RH WIND       PRES   REMARKS
DEATH VALLEY,    N/A     83  30  15 CALM        N/A
DENVER, CO     CLOUDY    46  43  89 S3        29.88F
GRAND CANYON,  CLEAR     33  25  72 CALM      30.08F
HONOLULU, HI   MOCLDY    75  72  88 NE3       30.09R
KAHULUI, MAUI  PTCLDY    75  66  73 NE13      30.08R
LAKE TAHOE, CA CLEAR     41  38  89 CALM      30.14S
LAS VEGAS, NV  PTCLDY    74  31  20 S7        29.81S
MAMMOTH LAKES, CLOUDY    46  38  72 W9        30.15S
MEXICO CITY, M PTCLDY    61  54  77 E2        30.34F
PHOENIX, AZ    CLEAR     76  31  19 CALM      29.83F
PORTLAND, OR   CLOUDY    54  45  71 NW9       30.23R
RENO, NV       PTCLDY    61  41  47 NW8       30.06S
SALT LAKE CITY PTCLDY    57  40  52 SE10      29.96R
SAN DIEGO, CA  CLOUDY    65  55  70 VRB3      30.01S
SAN FRANCISCO, PTCLDY    55  49  80 NW6       30.01F
SAN JOSE, CA   CLEAR     57  49  74 NW3       30.01F
SEATTLE, WA    MOCLDY    51  41  68 S13       30.16S
TIJUANA, MEX   CLOUDY    61  52  72 W3        30.01S

$$

STATION/POSITION TIME  TEMP    WIND        PRES    VSBY  WAVE
                       AIR SEA DIR/SP/G                  HT/PER
                 (UTC) (F)     (DEG/KT/KT) (MB)    (MI)  (FT/S)
POINT ARGUELLO B NOT AVBL
WEST SANTA BARBA 0650   54 53  320/ 23/ 27 1014.5F         6/ 8
POINT CONCEPTION NOT AVBL
EAST SANTA BARBA 0600   57 58  260/ 12/ 14 1014.6S
SANTA MONICA BAY 0650   60 64  240/  2/  4 1014.8F         4/ 6



USA.gov is the U.S. government's official web portal to all federal, state and local government web resources and services.